Starlink 30916

operational
NORAD ID: 58391 Int'l Des: 2023-178 Owner: SPXS Country: US Constellation: starlink
LEOCIRCULAR

About Starlink 30916

Description loading...

Live Position

Loading 3D Globe...

Upcoming Passes

Altitude History

Altitude vs Time

uPlot chart will show altitude changes over time

Two-Line Element Set

1 58391U 23178T 25303.82110997 .00002196 00000-0 86257-4 0 9997
2 58391 53.1618 244.5037 0001241 98.0561 262.0581 15.30193084110004
Epoch: Oct 30, 2025 • Age: 8 hours

Current Status

Altitude 478.3 km
Velocity 7.63 km/s
Sub-Earth Point 40.17°N, 174.44°W
Launch Date Nov 20, 2023
Age 1.9 years
Type internet

Technical Details

Classification Payload
Mass 730.00 kg
Dry Mass 700.00 kg
Total Mass 730.00 kg
Length 0.30 m
Diameter 4.10 m
Span 29.00 m
Shape Box + pan
Manufacturer SPXS
Bus Type Starlink V2M
Phase Status In Orbit
Owner/State SPXS/US

Large Constellations

Loading constellations...